#timestamp,LO_Frequency,Hit,StdDev 
1612490415.1,286047000.4,N
1612490416.0,286047000.4,N
1612490435.8,286047000.6,N
1612490455.7,286047000.5,N
1612490475.5,286047001.2,N
1612490495.3,286047000.7,N
1612490515.2,286047000.0,N
1612490535.0,286047000.6,N
1612490535.9,286047000.6,N
1612490555.7,286047000.3,N
1612490575.6,286047000.3,N
1612490595.4,286047000.8,N
1612490615.3,286047000.4,N
1612490635.1,286047001.1,N
1612490636.0,286047001.1,N
1612490655.8,286047001.1,N
1612490675.7,286047000.4,N
1612490695.5,286047000.5,N
1612490715.4,286047000.2,N
1612490735.2,286046999.8,N
1612490755.0,286047002.7,Y
1612490755.9,286047002.7,P
1612490775.8,286046999.7,N
1612490795.6,286047000.5,N
1612490815.5,286047000.4,N
1612490835.3,286047000.6,N
1612490855.1,286046999.9,N
1612490875.9,286047000.9,N
1612490895.7,286047000.5,N
1612490915.5,286046999.9,N
1612490935.4,286047000.8,N
1612490955.2,286047000.8,N
1612490975.0,286047001.2,N
1612490976.0,286047001.2,N
1612490995.8,286047001.0,N
1612491015.6,286047001.2,N
1612491035.5,286047001.2,N
1612491055.3,286047001.0,N
1612491075.1,286047000.8,N
1612491095.9,286047000.7,N
1612491115.7,286047000.6,N
1612491135.6,286047000.7,N
1612491155.4,286047000.6,N
1612491205.3,286046998.1,E
1612491215.2,286047000.1,N
1612491235.0,286046999.8,P
1612491235.9,286046999.8,N
1612491255.8,286047002.8,Y
1612491275.6,286047002.2,P
1612491295.4,286047002.7,N
1612491315.3,286047002.7,N
1612491335.1,286047002.8,N
1612491355.9,286047002.0,N
1612491375.7,286047002.1,N
1612491395.5,286047002.5,N
1612491415.4,286047002.5,N
1612491435.2,286047001.9,N
1612491455.0,286047002.1,N
1612491455.9,286047002.1,N
1612491475.8,286047001.5,N
1612491495.6,286047001.9,N
1612491515.5,286047001.8,N
1612491535.3,286047001.9,N
1612491555.1,286047002.0,Y
1612491575.9,286047000.6,P
1612491595.7,286047000.6,N
1612491615.5,286047001.0,N
1612491635.4,286047000.7,N
1612491655.2,286047000.8,N
1612491675.1,286046998.1,Y
1612491676.0,286046998.1,P
1612491695.8,286046998.2,N
1612491715.6,286046998.6,N
1612491735.5,286046998.6,N
1612491755.3,286046998.6,N
1612491775.1,286046998.9,N
1612491795.9,286046998.5,N
1612491815.7,286046998.1,N
1612491835.6,286047001.1,N
1612491855.4,286047001.1,N
1612491875.2,286046998.1,N
1612491895.1,286046998.8,N
1612491896.0,286046998.8,N
1612491915.8,286046998.5,N
1612491935.7,286047001.2,N
1612491955.5,286046998.5,N
1612491975.3,286046998.1,N
1612491995.2,286046998.5,N
1612492015.0,286046998.6,N
1612492015.9,286046998.6,N
1612492035.7,286046998.6,N
1612492055.6,286046998.7,N
1612492075.4,286046998.8,N
1612492095.3,286046998.7,N
1612492115.1,286046998.6,N
1612492116.0,286046998.6,N
1612492135.8,286046998.3,N
1612492155.7,286046998.5,N
1612492175.5,286046998.5,N
1612492195.3,286046998.5,N
1612492215.2,286047000.7,N
1612492235.0,286046998.8,N
1612492235.9,286046998.8,N
1612492255.8,286046998.5,N
1612492275.6,286046998.6,N
1612492295.4,286046998.1,N
1612492315.3,286047001.2,N
1612492335.1,286046998.2,N
1612492355.9,286046998.6,N
1612492375.7,286046998.1,N
1612492395.5,286047000.8,N
1612492415.4,286047001.1,N
1612492435.2,286046998.1,N
1612492455.0,286046998.8,N
1612492455.9,286046998.8,N
1612492475.8,286046999.2,N
1612492495.6,286046996.5,Y
1612492515.5,286046998.3,P
1612492535.3,286047000.8,N
1612492555.1,286046998.5,N
1612492575.9,286046998.6,N
1612492595.7,286046998.4,N
1612492615.6,286046998.2,N
1612492635.4,286046998.6,N
1612492655.2,286047000.6,N
1612492675.1,286047000.9,N
1612492676.0,286047000.9,N
1612492695.8,286047000.5,N
1612492715.6,286047000.3,N
1612492735.5,286047000.4,N
1612492755.3,286047000.0,N
1612492775.2,286047000.6,N
1612492795.9,286047001.0,N
1612492815.7,286047000.5,N
1612492835.6,286046999.9,N
1612492855.4,286047000.0,N
1612492875.2,286047000.5,N
1612492895.1,286047000.6,N
1612492896.0,286047000.6,N
1612492915.8,286046998.5,N
1612492935.7,286047000.7,N
1612492955.5,286047000.6,N
1612492975.3,286047001.0,N
1612492995.2,286047000.7,N
1612493015.0,286047000.4,N
1612493015.9,286047000.4,N
1612493035.8,286046999.9,N
1612493055.6,286047000.3,N
1612493075.4,286047000.9,N
1612493095.3,286047002.6,N
1612493115.1,286046999.9,N
1612493135.8,286047000.1,N
1612493155.7,286047000.2,N
1612493175.5,286047000.1,N
1612493195.4,286047000.2,N
1612493215.2,286046999.8,N
1612493235.0,286047002.4,Y
1612493235.9,286047002.4,P
1612493255.8,286047000.6,N
1612493275.6,286047001.0,N
1612493295.4,286047000.6,N
1612493315.3,286047000.9,N
1612493335.1,286047000.9,N
1612493355.9,286047000.6,N
1612493375.7,286047000.9,N
1612493395.5,286047001.0,N
1612493415.4,286047001.1,N
1612493435.2,286046998.9,N
1612493455.0,286046998.7,N
1612493456.0,286046998.7,N
1612493475.8,286047000.7,N
1612493495.6,286047000.5,N
1612493515.5,286047001.2,N
1612493565.3,286047000.9,E
1612493575.3,286047001.1,N
1612493595.1,286046999.5,P
1612493596.0,286046999.5,N
1612493615.8,286046998.9,N
1612493635.7,286046998.2,N
1612493655.5,286046998.1,N
1612493675.4,286046998.4,N
1612493695.2,286046998.3,N
1612493715.0,286046999.0,N
1612493715.9,286046999.0,N
1612493735.8,286046998.8,N
1612493755.6,286046998.3,N
1612493775.4,286046998.8,N
1612493795.3,286046998.5,N
1612493815.1,286046998.8,N
1612493835.9,286046998.1,N
1612493855.7,286046998.6,N
1612493875.5,286046998.3,N
1612493895.4,286046998.6,N
1612493915.2,286046998.1,N
1612493935.1,286046998.2,N
1612493936.0,286046998.2,N
1612493955.8,286046998.1,N
1612493975.6,286046998.5,N
1612493995.5,286046996.7,Y
